Date String (YYYY-MM-DD hh:mm:ss) UTC,Instrument flags,absolute air pressure of the measurement (hPa),sample flow rate (lpm),inlet stack bypass flow (lpm),air temperature of the measurement (°C),ambient temperature measured by the external sensor (°C),aerosol sample conditioner tube jacket temperature (°C),OPC LED temperature (°C),internal box temperature (°C),relative humidity of the measurement (%),span deviation,mass concentration of particles derived from Lorenz-Mie calculation of OPC scattering (μg/m³),mass concentration of particles derived from Lorenz-Mie calculation of OPC scattering (μg/m³),mass concentration of particles derived from Lorenz-Mie calculation of OPC scattering (μg/m³)
DateTimeUTC,F1_M11,P_M11,Q1_M11,Q2_M11,T1_M11,T2_M11,T3_M11,T4_M11,T5_M11,U1_M11,ZSPAN_M11,X2_M11,X0_M11,X1_M11
2023-09-03 23:00:00,SystemResetWarning,0829.2,5.02,000.00,030.9,024.2,000.0,038.7,029.9,34.4,0000.0,0004.54,0008.66,0003.61
2023-09-03 23:01:00,SystemResetWarning,0829.2,5.00,000.00,030.7,024.4,000.0,038.7,029.7,34.6,0000.0,0004.47,0008.78,0003.59
2023-09-03 23:02:00,SystemResetWarning,0829.2,4.98,000.00,030.5,024.8,000.0,038.6,029.8,34.6,0000.0,0004.44,0008.65,0003.58
2023-09-03 23:03:00,SystemResetWarning,0829.2,4.99,000.00,030.5,025.2,000.0,038.6,029.9,35.0,0000.0,0004.39,0008.60,0003.56
2023-09-03 23:04:00,SystemResetWarning,0829.2,5.01,000.00,030.5,025.6,000.0,038.6,030.1,35.7,0000.0,0004.30,0008.72,0003.52
2023-09-03 23:05:00,SystemResetWarning,0829.2,5.02,000.00,030.7,026.0,000.0,038.6,030.3,34.9,0000.0,0004.24,0008.81,0003.49
2023-09-03 23:06:00,SystemResetWarning,0829.3,4.96,000.00,030.9,026.3,000.0,038.6,030.4,34.3,0000.0,0004.18,0008.65,0003.47
2023-09-03 23:07:00,SystemResetWarning,0829.3,5.03,000.00,031.0,026.5,000.0,038.6,030.5,33.9,0000.0,0004.18,0008.67,0003.46
2023-09-03 23:08:00,SystemResetWarning,0829.4,5.00,000.00,031.1,026.8,000.0,038.6,030.5,33.2,0000.0,0004.18,0008.62,0003.46
2023-09-03 23:09:00,SystemResetWarning,0829.3,4.99,000.00,031.1,026.9,000.0,038.7,030.6,30.6,0000.0,0004.13,0008.51,0003.44
2023-09-03 23:10:00,SystemResetWarning,0829.4,4.99,000.00,031.1,027.1,000.0,038.7,030.6,30.9,0000.0,0004.05,0008.33,0003.42
2023-09-03 23:11:00,SystemResetWarning,0829.4,5.00,000.00,031.1,026.5,000.0,038.7,030.5,31.1,0000.0,0004.02,0008.12,0003.41
2023-09-03 23:12:00,SystemResetWarning,0829.3,5.00,000.00,031.0,025.0,000.0,038.6,030.0,31.3,0000.0,0004.03,0007.83,0003.41
2023-09-03 23:13:00,SystemResetWarning,0829.3,5.00,000.00,030.9,024.2,000.0,038.5,029.8,31.0,0000.0,0003.99,0007.75,0003.41
2023-09-03 23:14:00,SystemResetWarning,0829.3,5.01,000.00,030.7,024.2,000.0,038.5,029.7,31.5,0000.0,0003.95,0007.63,0003.38
2023-09-03 23:15:00,SystemResetWarning,0829.3,5.01,000.00,030.5,024.6,000.0,038.5,029.7,32.2,0000.0,0003.95,0007.40,0003.36
2023-09-03 23:16:00,SystemResetWarning,0829.4,4.99,000.00,030.4,025.0,000.0,038.5,029.8,32.8,0000.0,0003.93,0006.97,0003.34
2023-09-03 23:17:00,SystemResetWarning,0829.3,5.00,000.00,030.4,025.4,000.0,038.5,029.9,33.1,0000.0,0003.94,0007.14,0003.33
2023-09-03 23:18:00,SystemResetWarning,0829.3,5.00,000.00,030.3,025.8,000.0,038.5,030.1,33.9,0000.0,0003.91,0007.29,0003.31
2023-09-03 23:19:00,SystemResetWarning,0829.3,4.99,000.00,030.3,026.2,000.0,038.5,030.2,34.6,0000.0,0003.87,0007.12,0003.30
2023-09-03 23:20:00,SystemResetWarning,0829.2,5.01,000.00,030.3,026.5,000.0,038.4,030.2,35.0,0000.0,0003.90,0007.26,0003.29
2023-09-03 23:21:00,SystemResetWarning,0829.2,4.99,000.00,030.4,026.7,000.0,038.4,030.4,34.3,0000.0,0003.90,0007.31,0003.29
2023-09-03 23:22:00,SystemResetWarning,0829.1,5.00,000.00,030.5,026.9,000.0,038.4,030.4,33.1,0000.0,0003.93,0007.39,0003.28
2023-09-03 23:23:00,SystemResetWarning,0829.1,5.02,000.00,030.5,027.1,000.0,038.4,030.5,32.2,0000.0,0003.95,0007.44,0003.27
2023-09-03 23:24:00,SystemResetWarning,0829.1,4.99,000.00,030.5,026.9,000.0,038.4,030.4,32.9,0000.0,0003.94,0007.49,0003.25
2023-09-03 23:25:00,SystemResetWarning,0829.0,4.99,000.00,030.5,025.5,000.0,038.3,030.0,32.3,0000.0,0003.92,0007.50,0003.25
2023-09-03 23:26:00,SystemResetWarning,0828.9,5.01,000.00,030.3,024.5,000.0,038.2,029.7,33.2,0000.0,0003.92,0007.51,0003.24
2023-09-03 23:27:00,SystemResetWarning,0828.8,5.00,000.00,030.2,024.2,000.0,038.1,029.6,34.3,0000.0,0003.91,0007.96,0003.26
2023-09-03 23:28:00,SystemResetWarning,0828.7,5.00,000.00,030.0,024.5,000.0,038.1,029.6,35.8,0000.0,0003.89,0007.92,0003.26
2023-09-03 23:29:00,SystemResetWarning,0828.6,5.03,000.00,030.1,024.9,000.0,038.1,029.8,35.4,0000.0,0003.90,0007.83,0003.25
2023-09-03 23:30:00,SystemResetWarning,0828.7,4.97,000.00,030.3,025.3,000.0,038.1,030.0,34.4,0000.0,0003.89,0008.35,0003.25
2023-09-03 23:31:00,SystemResetWarning,0828.6,5.00,000.00,030.4,025.7,000.0,038.1,030.1,35.1,0000.0,0003.86,0008.53,0003.24
2023-09-03 23:32:00,SystemResetWarning,0828.6,5.02,000.00,030.5,026.1,000.0,038.1,030.3,35.5,0000.0,0003.84,0008.53,0003.23
2023-09-03 23:33:00,SystemResetWarning,0828.7,5.01,000.00,030.8,026.3,000.0,038.2,030.4,35.1,0000.0,0003.82,0008.53,0003.22
2023-09-03 23:34:00,SystemResetWarning,0828.7,4.98,000.00,031.1,026.6,000.0,038.2,030.6,33.2,0000.0,0003.78,0008.44,0003.22
2023-09-03 23:35:00,SystemResetWarning,0828.7,5.00,000.00,031.2,026.8,000.0,038.3,030.6,32.7,0000.0,0003.74,0008.54,0003.20
2023-09-03 23:36:00,SystemResetWarning,0828.7,5.01,000.00,031.3,027.0,000.0,038.4,030.6,32.9,0000.0,0003.76,0008.73,0003.19
2023-09-03 23:37:00,SystemResetWarning,0828.8,5.01,000.00,031.3,027.1,000.0,038.5,030.7,32.9,0000.0,0003.76,0008.74,0003.19
2023-09-03 23:38:00,SystemResetWarning,0828.8,4.98,000.00,031.4,026.0,000.0,038.5,030.4,32.9,0000.0,0003.73,0008.26,0003.17
2023-09-03 23:39:00,SystemResetWarning,0828.8,5.00,000.00,031.3,025.1,000.0,038.4,030.2,33.7,0000.0,0003.72,0008.16,0003.16
2023-09-03 23:40:00,SystemResetWarning,0828.8,5.01,000.00,031.2,025.0,000.0,038.5,030.0,34.0,0000.0,0003.71,0008.34,0003.15
2023-09-03 23:41:00,SystemResetWarning,0828.8,4.99,000.00,031.0,025.2,000.0,038.5,030.0,33.5,0000.0,0003.69,0007.96,0003.14
2023-09-03 23:42:00,SystemResetWarning,0828.8,4.99,000.00,030.9,025.6,000.0,038.6,030.1,33.7,0000.0,0003.65,0007.56,0003.12
2023-09-03 23:43:00,SystemResetWarning,0828.8,5.01,000.00,030.9,025.9,000.0,038.6,030.2,32.9,0000.0,0003.62,0007.44,0003.12
2023-09-03 23:44:00,SystemResetWarning,0828.8,5.01,000.00,030.8,026.3,000.0,038.6,030.3,33.2,0000.0,0003.60,0007.30,0003.10
2023-09-03 23:45:00,SystemResetWarning,0828.8,5.00,000.00,030.8,026.5,000.0,038.6,030.4,32.9,0000.0,0003.55,0007.10,0003.05
2023-09-03 23:46:00,SystemResetWarning,0828.7,5.00,000.00,030.8,026.8,000.0,038.6,030.5,33.4,0000.0,0003.52,0006.77,0003.03
2023-09-03 23:47:00,SystemResetWarning,0828.7,5.00,000.00,030.7,026.9,000.0,038.6,030.5,33.1,0000.0,0003.48,0006.66,0003.01
2023-09-03 23:48:00,SystemResetWarning,0828.7,4.98,000.00,030.7,026.1,000.0,038.5,030.3,33.2,0000.0,0003.43,0006.66,0002.99
2023-09-03 23:49:00,SystemResetWarning,0828.6,5.00,000.00,030.5,024.8,000.0,038.4,029.8,33.6,0000.0,0003.42,0006.87,0002.98
2023-09-03 23:50:00,SystemResetWarning,0828.6,5.00,000.00,030.4,024.2,000.0,038.4,029.6,33.9,0000.0,0003.40,0007.56,0002.96
2023-09-03 23:51:00,SystemResetWarning,0828.6,5.01,000.00,030.2,024.3,000.0,038.3,029.5,34.4,0000.0,0003.37,0007.78,0002.94
2023-09-03 23:52:00,SystemResetWarning,0828.6,5.00,000.00,030.0,024.7,000.0,038.3,029.6,34.7,0000.0,0003.36,0007.74,0002.93
2023-09-03 23:53:00,SystemResetWarning,0828.6,5.00,000.00,029.9,025.1,000.0,038.2,029.7,34.6,0000.0,0003.40,0007.84,0002.93
2023-09-03 23:54:00,SystemResetWarning,0828.7,5.00,000.00,029.9,025.6,000.0,038.2,029.9,34.4,0000.0,0003.42,0007.93,0002.94
2023-09-03 23:55:00,SystemResetWarning,0828.6,5.00,000.00,029.9,025.9,000.0,038.2,030.0,34.3,0000.0,0003.40,0007.91,0002.93
2023-09-03 23:56:00,SystemResetWarning,0828.6,5.00,000.00,029.8,026.2,000.0,038.1,030.0,34.5,0000.0,0003.41,0007.93,0002.95
2023-09-03 23:57:00,SystemResetWarning,0828.6,5.00,000.00,029.8,026.5,000.0,038.1,030.1,34.4,0000.0,0003.43,0008.50,0002.97
2023-09-03 23:58:00,SystemResetWarning,0828.6,5.00,000.00,029.8,026.7,000.0,038.1,030.2,34.0,0000.0,0003.42,0008.43,0002.97
2023-09-03 23:59:00,SystemResetWarning,0828.6,5.00,000.00,029.8,026.9,000.0,038.1,030.2,33.9,0000.0,0003.41,0008.25,0002.97
